{"data":{"norad_id":53638,"intl_designator":"2022-104BC","name":"STARLINK-4594","alt_names":[],"object_type":"PAYLOAD","status":"ACTIVE","operator":null,"country":"US","launch_date":"2022-08-28","launch_site_code":"AFETR","launch_vehicle":null,"mission":null,"orbit_class":"UNKNOWN","rcs_meters":null,"size_class":null,"mass_kg":null,"dimensions":null,"purposes":["comms"],"wikipedia_slug":null,"has_3d_model":false,"image_url":null,"decayed_at":null,"tle_current":{"epoch":"2026-05-24T18:05:54.258144Z","epoch_age_seconds":103550,"freshness":"FRESH","line1":"1 53638U 22104BC  26144.75410021  .00000318  00000+0  38080-4 0  9995","line2":"2 53638  53.2156 242.2833 0001043  92.6541 267.4571 15.08839404207719","mean_motion":15.08839404,"eccentricity":0.0001043,"inclination_deg":53.2156,"raan_deg":242.2833,"arg_perigee_deg":92.6541,"mean_anomaly_deg":267.4571,"bstar":3.808e-5,"rev_number":20771,"period_min":95.437592376133,"perigee_km":539.02367558369,"apogee_km":540.46674581285,"semimajor_km":6917.8822106983,"source":"CELESTRAK","updated_at":"2026-05-25T13:38:17.482968Z"}}}